Location: Pasarilla del Rebollar
(40.6790°N, 5.0062°W)
Time: 11:27:55
(UTC+00:00)

ADEOS Rocket - Pass Details

Date: 22 April 2026
Orbit: 859 x 1304 km, 98.8° (Epoch: 15 May)

Event Time Altitude Azimuth Distance (km) Brightness Sun altitude
Rises 02:16:40 0° 14° (NNE) 4,200 7.3 -30.5°
Reaches altitude 10° 02:19:18 10° 16° (NNE) 3,266 6.5 -30.2°
Maximum altitude 02:26:59 78° 103° (ESE) 1,330 3.6 -29.4°
Enters shadow 02:28:50 56° 175° (S) 1,514 3.6 -29.2°
